Location: Unspecified
(0.0000°N, 0.0000°E)
Time: 06:08:58
(UTC+00:00)

STARLINK-2649 - Pass Details

Date: 12 June 2021
Orbit: 349 x 350 km, 53.0° (Epoch: 20 June)

Event Time Altitude Azimuth Distance (km) Brightness Sun altitude
Exits shadow 04:34:40 - 153° (SSE) 1,408 5.7 -19.5°
Reaches altitude 10° 04:35:21 10° 141° (SE) 1,302 5.7 -19.4°
Maximum altitude 04:36:09 11° 125° (SE) 1,255 5.8 -19.2°
Drops below altitude 10° 04:36:57 10° 108° (ESE) 1,301 6.2 -19.0°
Sets 04:40:12 0° 68° (ENE) 2,138 8.4 -18.3°
